Location: Boone Canyon
(38.3180°N, 119.2504°W)
Time: 17:12:51
(UTC+00:00)

Meteor 1-4 Rocket - Pass Details

Date: 18 September 2020
Orbit: 450 x 501 km, 81.2° (Epoch: 19 October)

Event Time Altitude Azimuth Distance (km) Brightness Sun altitude
Exits shadow 12:09:58 21° 180° (S) 1,065 4.1 -18.5°
Maximum altitude 12:12:09 75° 98° (E) 472 2.5 -18.1°
Drops below altitude 10° 12:15:37 10° 12° (NNE) 1,599 5.6 -17.5°
Sets 12:17:43 0° 11° (N) 2,483 6.5 -17.1°
